Home   Weather   Ede   Past weeks

Flag for Netherlands Past Weather in Ede, Netherlands — Yesterday and Last 2 Weeks

Now
63 °F

Overcast.


Feels Like: 63 °F
Forecast: 57 / 67 °F
Wind: 13 mph from Southwest

Location: Deelen

Current Time: Sep 28, 2016 at 10:36:05 AM

Latest Report: Sep 28, 2016 at 9:55 AM


Visibility: N/A

Pressure: 30.21 "Hg

Humidity: 83%

Dew Point: 57 °F

Location of EdeLocation

Past Weather in Ede — Graph

°F

Ede Temperature Yesterday

Maximum temperature yesterday: 70 °F (at 3:25 PM)
Minimum temperature yesterday: 39 °F (at 5:55 AM)
Average temperature yesterday: 55 °F

High & Low Weather Summary for the Past Weeks

 TemperatureHumidityPressure
High90 °F (Sep 13, 2:25 PM)100% (Sep 16, 4:25 AM)30.30 "Hg (Sep 16, 4:25 AM)
Low39 °F (Sep 27, 5:55 AM)29% (Sep 14, 3:25 PM)29.80 "Hg (Sep 15, 2:55 PM)
Average62 °F72%30.07 "Hg
* Reported Sep 13 9:25 AM — Sep 28 9:25 AM, Ede, Weather by CustomWeather, © 2016

Note: Actual official high and low records may vary slightly from our data, if they occured in-between our weather recording intervals... More about our weather records

Advertising

Ede Weather History for the Previous 24 Hours

Scroll right to see more
 ConditionsComfort  
Time TempWeatherWind HumidityBarometerVisibility
9:25 AM
Wed, Sep 28
63 °FPartly sunny.13 mph83%30.21 "HgN/A
8:55 AM61 °FOvercast.12 mph88%30.21 "HgN/A
8:25 AM61 °FBroken clouds.12 mph88%30.21 "HgN/A
7:55 AM61 °FMostly cloudy.10 mph83%30.21 "HgN/A
7:25 AM59 °FMostly cloudy.10 mph88%30.18 "HgN/A
6:55 AM61 °FOvercast.10 mph77%30.21 "HgN/A
6:25 AM61 °FMostly cloudy.10 mph72%30.18 "HgN/A
5:55 AM61 °FOvercast.10 mph72%30.18 "HgN/A
5:25 AM61 °FMostly cloudy.10 mph68%30.21 "HgN/A
4:55 AM61 °FMostly cloudy.13 mph68%30.21 "HgN/A
4:25 AM61 °FOvercast.13 mph72%30.21 "HgN/A
3:55 AM61 °FCool.13 mph68%30.21 "HgN/A
3:25 AM63 °FOvercast.13 mph59%30.21 "HgN/A
2:55 AM63 °FOvercast.10 mph56%30.21 "HgN/A
1:55 AM63 °FPassing clouds.10 mph52%30.21 "HgN/A
1:25 AM63 °FMostly cloudy.10 mph52%30.24 "HgN/A
12:55 AM63 °FOvercast.9 mph56%30.24 "HgN/A
12:25 AM63 °FOvercast.12 mph56%30.24 "HgN/A
11:55 PM
Tue, Sep 27
61 °FPartly cloudy.10 mph59%30.24 "HgN/A
11:25 PM61 °FPassing clouds.10 mph59%30.24 "HgN/A
10:55 PM59 °FMostly cloudy.9 mph63%30.24 "HgN/A
10:25 PM59 °FPassing clouds.6 mph63%30.24 "HgN/A
9:55 PM57 °FCool.3 mph67%30.27 "HgN/A
9:25 PM55 °FPassing clouds.3 mph72%30.27 "HgN/A
8:55 PM57 °FCool.2 mph67%30.27 "HgN/A
8:25 PM59 °FRefreshingly cool.2 mph59%30.27 "HgN/A
7:55 PM61 °FRefreshingly cool.5 mph55%30.27 "HgN/A
7:25 PM63 °FPassing clouds.5 mph52%30.27 "HgN/A
6:55 PM64 °FOvercast.6 mph49%30.24 "HgN/A
6:25 PM68 °FMild.7 mph43%30.27 "HgN/A
5:55 PM70 °FPassing clouds.9 mph38%30.27 "HgN/A
5:25 PM70 °FMild.10 mph40%30.27 "HgN/A
4:55 PM70 °FMild.9 mph40%30.27 "HgN/A
4:25 PM70 °FPassing clouds.10 mph40%30.27 "HgN/A
3:55 PM70 °FMild.12 mph40%30.27 "HgN/A
3:25 PM70 °FPassing clouds.14 mph38%30.27 "HgN/A
2:55 PM68 °FMild.10 mph46%30.27 "HgN/A
2:25 PM68 °FMild.13 mph40%30.27 "HgN/A
1:55 PM68 °FMild.10 mph43%30.27 "HgN/A
1:25 PM68 °FMild.9 mph49%30.30 "HgN/A
12:55 PM66 °FPassing clouds.10 mph52%30.30 "HgN/A
12:25 PM66 °FPassing clouds.8 mph52%30.30 "HgN/A
11:55 AM64 °FPassing clouds.7 mph60%30.30 "HgN/A
11:25 AM63 °FMild.3 mph68%30.30 "HgN/A
10:55 AM61 °FPassing clouds.2 mph72%30.30 "HgN/A
10:25 AM57 °FPassing clouds.2 mph82%30.30 "HgN/A
Weather by CustomWeather, © 2016

See weather overviewHow to use our weather pages